Regional Weather Roundup
Issued by NWS Jackson, KY

Home | Current Version | Previous Version | Text Only | Print | Product List | Glossary Off
Versions: 1 2 3 4 5 6 7 8 9 10 11 12 13 14 15 16 17 18 19 20 21 22 23 24 25 26 27 28 29 30 31 32 33 34 35 36 37 38 39 40 41 42 43 44 45 46 47 48 49 50

000
ASUS43 KJKL 290710
RWRJKL

EAST KENTUCKY HOURLY WEATHER ROUNDUP
NATIONAL WEATHER SERVICE JACKSON KY
300 AM EDT FRI APR 29 2016

NOTE: "FAIR" INDICATES FEW OR NO CLOUDS BELOW 12,000 FEET WITH
NO SIGNIFICANT WEATHER AND/OR OBSTRUCTIONS TO VISIBILITY.

* THESE REPORTS ARE NOT UNDER NWS QUALITY CONTROL AND MAY NOT
  REPORT WEATHER SUCH AS PRECIPITATION AND FOG.

KYZ079-080-083-085-087-088-110-112-115-119-120-290800
...EASTERN KENTUCKY...

CITY           SKY/WX    TMP DP  RH WIND       PRES   REMARKS
JACKSON        CLEAR     61  50  67 W3        29.98S
LONDON         CLEAR     56  53  90 CALM      30.00S
SOMERSET*      CLEAR     54  54 100 CALM      30.02S FOG
MONTICELLO*    CLEAR     53  52  96 CALM      30.03S
WILLIAMSBURG*  SUNNY     57  55  94 SW3       30.01S
MIDDLESBORO*   CLEAR     62  53  72 CALM      30.00R
HARLAN APT*    CLOUDY    55  55 100 CALM      30.01S VSB<1/4
HAZARD APT*    SUNNY     59  54  82 CALM      29.98
BLACK MTN*       N/A     54  50  87 NW3         N/A
PIKE CO APT*     N/A     62  51  68 CALM      29.97S
BIG SANDY APT* SUNNY     60  54  79 CALM      29.97S
MOREHEAD APT*  MOSUNNY   55  50  82 S6        29.98S
$$

KYZ035-036-041-042-044-050-067-078-099-290800
...CENTRAL KENTUCKY...

CITY           SKY/WX    TMP DP  RH WIND       PRES   REMARKS
MT STERLING*   CLEAR     54  50  87 W3        29.99S
FLEMING/MASON* CLEAR     56  50  80 W3        29.97S
DANVILLE*      CLEAR     59  50  72 NW6       30.01R
RICHMOND*      CLEAR     61  48  63 CALM      29.98S
LEXINGTON      CLEAR     58  48  69 W5        29.99R
FRANKFORT      CLEAR     58  49  72 NW5       29.97S
LOUISVILLE     CLEAR     61  50  67 W3        29.99R
LEBANON*         N/A     59  50  72 SW3       30.00S
BOWLING GREEN  CLEAR     57  53  86 CALM      29.99F
$$

KYZ091>093-OHZ055-061-077-WVZ005-015-034-035-042-290800
...SOUTHERN OHIO/WEST VIRGINIA...

CITY           SKY/WX    TMP DP  RH WIND       PRES   REMARKS
COVINGTON      FOG       57  55  93 NW9       29.98R VSB 1/4
COLUMBUS       CLOUDY    52  49  89 CALM      29.94S FOG
DAYTON         CLOUDY    51  49  92 W5        29.98S FOG
WILMINGTON     PTCLDY    51  50  96 NW6       29.96S FOG
HUNTINGTON     MOCLDY    61  59  93 NW3       29.93S
CHARLESTON       N/A     59  58  96 SW5       29.93R
PINEVILLE*     FOG       55  52  90 MISG      30.02R VSB 1/2
BECKLEY          N/A     58  54  86 W6        29.97S
$$

VAZ002-007-008-TNZ017-027-036-066-071-290800
...SOUTHWEST VIRGINIA/EAST TENNESSEE...

CITY           SKY/WX    TMP DP  RH WIND       PRES   REMARKS
WISE*            N/A     59  45  58 W5        30.03S
BRISTOL        CLEAR     57  54  89 CALM      29.98S
MORRISTOWN*    SUNNY     66  52  59 NW5       29.98S
SEVIERVILLE*   SUNNY     57  55  94 CALM      29.99S
OAK RIDGE      CLEAR     61  56  83 CALM      29.99S
CROSSVILLE     CLEAR     65  49  56 NW7       30.04R
NASHVILLE      CLEAR     59  54  83 S3        30.00S
$$

...KEY TO REMARKS...
VSB - VISIBILITY IN MILES
WCI - WIND CHILL INDEX
HX  - HEAT INDEX

$$



USA.gov is the U.S. government's official web portal to all federal, state and local government web resources and services.